Regional Weather Roundup
Issued by NWS Columbia, SC

Home | Current Version | Previous Version | Text Only | Print | Product List | Glossary On
Versions: 1 2 3 4 5 6 7 8 9 10 11 12 13 14 15 16 17 18 19 20 21 22 23 24 25 26 27 28 29 30 31 32 33 34 35 36 37 38 39 40 41 42 43 44 45 46 47
000
ASUS42 KCAE 221210
RWRCAE
REGIONAL WEATHER ROUNDUP
NATIONAL WEATHER SERVICE COLUMBIA SC
800 AM EDT WED OCT 22 2014

NOTE: "FAIR" INDICATES FEW OR NO CLOUDS BELOW 12,000 FEET WITH NO
SIGNIFICANT WEATHER AND/OR OBSTRUCTIONS TO VISIBILITY.

NOT ALL STATIONS ARE QUALITY CONTROLLED BY THE NATIONAL
WEATHER SERVICE. USE DATA WITH CAUTION...ESPECIALLY
DEWPOINT OBSERVATIONS.

SCZ001>056-GAZ040-063>065-077-221300-
...UPSTATE SOUTH CAROLINA...

CITY           SKY/WX    TMP DP  RH WIND       PRES   REMARKS
ANDERSON       CLEAR     40  39  97 CALM      30.07R
6HR MIN TEMP:  39; 6HR MAX TEMP:  52;

LIBERTY        FAIR      35  35 100 MISG      30.05R
6HR MIN TEMP:  35; 6HR MAX TEMP:  79;

SPARTANBURG    FAIR      45  39  81 N3        30.04S
CLEMSON        CLEAR     47  36  65 NW5       30.07R
6HR MIN TEMP:  45; 6HR MAX TEMP:  56;

GREENVILLE     CLEAR     51  34  52 N9G24     30.05R
6HR MIN TEMP:  47; 6HR MAX TEMP:  54;

GREENWOOD      CLEAR     40  38  93 CALM      30.08R
6HR MIN TEMP:  39; 6HR MAX TEMP:  49;

GREER          CLEAR     47  37  68 NW7       30.03S
6HR MIN TEMP:  43; 6HR MAX TEMP:  53;

ROCK HILL      CLEAR     43  37  79 NW5       30.05R
6HR MIN TEMP:  42; 6HR MAX TEMP:  53;

LAURENS        FAIR      41 N/A N/A N6        30.06S


...CENTRAL SOUTH CAROLINA...

CITY           SKY/WX    TMP DP  RH WIND       PRES   REMARKS
COLUMBIA APT   CLEAR     45  40  82 CALM      30.04R
6HR MIN TEMP:  45; 6HR MAX TEMP:  59;

COLUMBIA OWENS CLEAR     46  42  86 CALM      30.06R
6HR MIN TEMP:  46; 6HR MAX TEMP:  59;

DARLINGTON     CLEAR     46  37  71 NW5       30.03R
6HR MIN TEMP:  46; 6HR MAX TEMP:  57;

FLORENCE       CLEAR     48  40  73 NW6       30.01R
6HR MIN TEMP:  48; 6HR MAX TEMP:  60;

MCENTIRE ANGB  CLEAR     43  40  89 SW2       30.04R
6HR MIN TEMP:  42; 6HR MAX TEMP:  53;

ORANGEBURG     CLEAR     48  42  80 N5        30.04R
6HR MIN TEMP:  48; 6HR MAX TEMP:  58;

SUMTER SHAW    CLEAR     47  42  80 NW3       30.02R
6HR MIN TEMP:  47; 6HR MAX TEMP:  57;

NEWBERRY       FAIR      39 N/A N/A N6        30.08S WCI  35
AIKEN          FAIR      46  43  87 CALM      30.08R
BARNWELL       FAIR      45  43  93 CALM      30.05R
MANNING        FAIR      48  43  81 CALM      30.03R
CAMDEN         FAIR      45  39  81 NW3       30.04R
LANCASTER      FAIR      45  41  87 NW5       30.03S
WINNSBORO      FAIR      43  39  87 NW6       30.04R


...EASTERN AND COASTAL SOUTH CAROLINA...

CITY           SKY/WX    TMP DP  RH WIND       PRES   REMARKS
MYRTLE BEACH   CLEAR     54  39  58 N12       29.98R
N MYRTLE BCH   CLEAR     51  41  68 NW7       29.98R
6HR MIN TEMP:  51; 6HR MAX TEMP:  60;

CONWAY         FAIR      48  43  81 CALM      30.00R
MARION         FAIR      48  39  71 CALM      30.00R
HARTSVILLE     FAIR      48  28  46 CALM      30.02R
FLORENCE       CLEAR     48  40  73 NW6       30.01R
6HR MIN TEMP:  48; 6HR MAX TEMP:  60;

DARLINGTON     CLEAR     46  37  71 NW5       30.03R
6HR MIN TEMP:  46; 6HR MAX TEMP:  57;

CHARLESTON APT CLEAR     55  42  61 N8        30.02R
6HR MIN TEMP:  52; 6HR MAX TEMP:  63;

MOUNT PLEASANT FAIR      54  45  71 N5        30.02R
WALTERBORO     SUNNY     46 N/A N/A CALM      30.04R
BEAUFORT       CLEAR     54  45  71 N9        30.03R
6HR MIN TEMP:  54; 6HR MAX TEMP:  63;



...EASTERN GEORGIA...

CITY           SKY/WX    TMP DP  RH WIND       PRES   REMARKS
AUGUSTA BUSH F CLEAR     42  40  92 CALM      30.06R
6HR MIN TEMP:  41; 6HR MAX TEMP:  56;

AUGUSTA DANIEL CLEAR     50  42  74 N7        30.06R
6HR MIN TEMP:  50; 6HR MAX TEMP:  59;

THOMSON        CLEAR     42  42 100 CALM      30.11R
6HR MIN TEMP:  42; 6HR MAX TEMP:  51;

WASHINGTON     FAIR      45  45 100 N3        30.07R
CLAXTON        FAIR      46  46 100 CALM      30.05R
SYLVANIA       SUNNY     52  50  94 CALM      30.05R
6HR MIN TEMP:  50; 6HR MAX TEMP:  60;

STATESBORO     CLEAR     47  47 100 CALM      30.05R
6HR MIN TEMP:  47; 6HR MAX TEMP:  57;

SAVANNAH       CLEAR     53  45  74 N8        30.03R
6HR MIN TEMP:  52; 6HR MAX TEMP:  60;



...SOUTHERN NORTH CAROLINA...

CITY           SKY/WX    TMP DP  RH WIND       PRES   REMARKS
CHARLOTTE      PTCLDY    47  36  65 NW7       30.04R
6HR MIN TEMP:  47; 6HR MAX TEMP:  52;

MONROE         CLEAR     49  38  65 NW3       30.03R
6HR MIN TEMP:  49; 6HR MAX TEMP:  53;

WADESBORO      SUNNY     50  39  67 NW6       30.02R
6HR MIN TEMP:  44; 6HR MAX TEMP:  53;

ROCKINGHAM     SUNNY     48  40  73 NW5       30.01R
6HR MIN TEMP:  44; 6HR MAX TEMP:  55;

RUTHERFORDTON  CLEAR     45  37  73 CALM      30.08R
6HR MIN TEMP:  44; 6HR MAX TEMP:  51;

ASHEVILLE      PTCLDY    45  35  68 NW8       30.10R
6HR MIN TEMP:  44; 6HR MAX TEMP:  47;


$$



USA.gov is the U.S. government's official web portal to all federal, state and local government web resources and services.